GZP7289 USTR-USMU

Flight info

Callsign GZP7289
Flight time 1h 41m
Altitude 36000
Route LAKED L165 LUGIK A925 HMN R124 LARTU W77 REMKI
Aircraft T154/M-VGDW/C

Departure

Time 2026-04-30 09:57
Airport Roshchino International Airport (USTR)

Arrival

Time 2026-04-30 11:39
Airport Novy Urengoy Airport (USMU)
Time Latitude Longitude Altitude Speed Heading
2026-04-30 09:24 57.18636 65.33702 386 ft 0 kts 224°
2026-04-30 09:47 57.18635 65.33701 386 ft 0 kts 224°
2026-04-30 09:47 57.18628 65.33688 386 ft 5 kts 230°
2026-04-30 09:47 57.18615 65.33594 386 ft 10 kts 266°
2026-04-30 09:48 57.18612 65.33453 386 ft 11 kts 269°
2026-04-30 09:48 57.18586 65.33321 386 ft 11 kts 230°
2026-04-30 09:48 57.18531 65.33212 386 ft 11 kts 225°
2026-04-30 09:48 57.18483 65.33089 386 ft 12 kts 248°
2026-04-30 09:49 57.18470 65.32935 386 ft 12 kts 266°
2026-04-30 09:49 57.18466 65.32776 386 ft 12 kts 267°
2026-04-30 09:49 57.18464 65.32612 386 ft 13 kts 268°
2026-04-30 09:49 57.18460 65.32441 386 ft 13 kts 268°
2026-04-30 09:50 57.18457 65.32274 386 ft 12 kts 269°
2026-04-30 09:50 57.18492 65.32137 386 ft 12 kts 314°
2026-04-30 09:50 57.18555 65.32028 386 ft 12 kts 317°
2026-04-30 09:50 57.18608 65.31939 386 ft 0 kts 317°
2026-04-30 09:53 57.18625 65.31911 386 ft 8 kts 317°
2026-04-30 09:53 57.18676 65.31825 386 ft 10 kts 311°
2026-04-30 09:53 57.18687 65.31705 386 ft 10 kts 243°
2026-04-30 09:54 57.18664 65.31647 386 ft 0 kts 228°
2026-04-30 09:56 57.18663 65.31645 386 ft 3 kts 228°
2026-04-30 09:56 57.18543 65.31400 386 ft 57 kts 227°
2026-04-30 09:56 57.18086 65.30472 386 ft 134 kts 227°
2026-04-30 09:57 57.17334 65.28952 503 ft 180 kts 228°
2026-04-30 09:57 57.16434 65.27170 944 ft 196 kts 227°
2026-04-30 09:57 57.15474 65.25377 1137 ft 203 kts 223°
2026-04-30 09:57 57.14310 65.23807 1232 ft 214 kts 205°
2026-04-30 09:58 57.12896 65.23374 1701 ft 209 kts 171°
2026-04-30 09:58 57.11540 65.24559 1879 ft 231 kts 136°
2026-04-30 09:58 57.10675 65.27138 2231 ft 243 kts 103°
2026-04-30 09:58 57.10722 65.30145 2631 ft 239 kts 65°
2026-04-30 09:59 57.13388 65.33170 2890 ft 246 kts
2026-04-30 09:59 57.16652 65.34095 3681 ft 236 kts 12°
2026-04-30 10:00 57.19820 65.35877 4378 ft 239 kts 16°
2026-04-30 10:00 57.21390 65.36820 4734 ft 240 kts 13°
2026-04-30 10:01 57.24685 65.37745 5458 ft 242 kts
2026-04-30 10:01 57.26367 65.38138 5833 ft 243 kts
2026-04-30 10:01 57.28027 65.38566 6212 ft 244 kts
2026-04-30 10:02 57.31400 65.39459 6954 ft 248 kts
2026-04-30 10:02 57.33106 65.39915 7335 ft 250 kts
2026-04-30 10:02 57.34821 65.40375 7823 ft 251 kts
2026-04-30 10:02 57.36557 65.40839 8356 ft 256 kts
2026-04-30 10:03 57.38312 65.41310 8899 ft 259 kts
2026-04-30 10:03 57.40106 65.41792 9468 ft 263 kts
2026-04-30 10:03 57.41924 65.42282 10042 ft 266 kts
2026-04-30 10:03 57.43758 65.42775 10634 ft 270 kts
2026-04-30 10:04 57.45660 65.43280 11256 ft 287 kts
2026-04-30 10:04 57.47714 65.43810 11674 ft 315 kts
2026-04-30 10:04 57.49967 65.44402 12161 ft 339 kts
2026-04-30 10:04 57.52303 65.45041 12563 ft 347 kts
2026-04-30 10:05 57.54701 65.45712 12929 ft 348 kts
2026-04-30 10:05 57.57116 65.46375 13291 ft 351 kts
2026-04-30 10:05 57.59503 65.47027 13650 ft 353 kts
2026-04-30 10:05 57.61945 65.47682 14022 ft 355 kts
2026-04-30 10:06 57.64384 65.48209 14410 ft 355 kts 359°
2026-04-30 10:06 57.66824 65.48670 14787 ft 357 kts 359°
2026-04-30 10:06 57.69305 65.49161 15172 ft 360 kts 359°
2026-04-30 10:06 57.71794 65.49668 15556 ft 363 kts 359°
2026-04-30 10:07 57.74325 65.50184 15961 ft 366 kts 359°
2026-04-30 10:07 57.76860 65.50703 16368 ft 369 kts 359°
2026-04-30 10:07 57.79402 65.51227 16782 ft 371 kts 359°
2026-04-30 10:07 57.81958 65.51753 17206 ft 376 kts 359°
2026-04-30 10:08 57.84565 65.52291 17672 ft 377 kts 358°
2026-04-30 10:08 57.87149 65.52825 18121 ft 381 kts 358°
2026-04-30 10:08 57.89790 65.53369 18591 ft 384 kts 358°
2026-04-30 10:08 57.92443 65.53919 19074 ft 386 kts 358°
2026-04-30 10:09 57.95114 65.54474 19569 ft 390 kts 358°
2026-04-30 10:09 57.97809 65.55032 20080 ft 394 kts 358°
2026-04-30 10:09 58.00526 65.55596 20612 ft 398 kts 357°
2026-04-30 10:09 58.03294 65.56175 21184 ft 400 kts 357°
2026-04-30 10:10 58.06049 65.56750 21757 ft 404 kts 356°
2026-04-30 10:10 58.08868 65.57334 22355 ft 408 kts 356°
2026-04-30 10:10 58.11692 65.57924 22887 ft 416 kts 356°
2026-04-30 10:10 58.14554 65.58525 23319 ft 420 kts 356°
2026-04-30 10:11 58.17458 65.59142 23780 ft 422 kts 356°
2026-04-30 10:11 58.20380 65.59759 24258 ft 427 kts 356°
2026-04-30 10:11 58.23344 65.60386 24774 ft 427 kts 355°
2026-04-30 10:11 58.26287 65.61003 25271 ft 434 kts 355°
2026-04-30 10:12 58.29288 65.61637 25813 ft 435 kts 355°
2026-04-30 10:12 58.32289 65.62278 26358 ft 440 kts 355°
2026-04-30 10:12 58.35357 65.62926 26909 ft 446 kts 355°
2026-04-30 10:12 58.38436 65.63577 27513 ft 448 kts 355°
2026-04-30 10:13 58.41492 65.64230 28108 ft 451 kts 355°
2026-04-30 10:13 58.44644 65.64900 28720 ft 456 kts 354°
2026-04-30 10:13 58.47809 65.65581 29328 ft 462 kts 355°
2026-04-30 10:13 58.51014 65.66286 29926 ft 467 kts 355°
2026-04-30 10:14 58.54250 65.66988 30513 ft 472 kts 355°
2026-04-30 10:14 58.57490 65.67683 31098 ft 478 kts 355°
2026-04-30 10:14 58.64114 65.69122 32319 ft 483 kts 354°
2026-04-30 10:15 58.67448 65.69839 32901 ft 487 kts 355°
2026-04-30 10:15 58.70795 65.70570 33500 ft 488 kts 354°
2026-04-30 10:15 58.74165 65.71304 34063 ft 492 kts 354°
2026-04-30 10:15 58.77589 65.72061 34630 ft 497 kts 354°
2026-04-30 10:16 58.80998 65.72812 34999 ft 501 kts 355°
2026-04-30 10:16 58.84439 65.73568 35337 ft 503 kts 355°
2026-04-30 10:16 58.87905 65.74329 35655 ft 506 kts 356°
2026-04-30 10:17 58.94883 65.75866 36498 ft 508 kts 357°
2026-04-30 10:17 59.01891 65.77409 37372 ft 510 kts 359°
2026-04-30 10:17 59.05413 65.78190 37790 ft 510 kts 359°
2026-04-30 10:18 59.08925 65.78967 38205 ft 509 kts 360°
2026-04-30 10:18 59.12428 65.79745 38521 ft 511 kts 360°
2026-04-30 10:18 59.15969 65.80528 38684 ft 516 kts
2026-04-30 10:19 59.23044 65.82101 39139 ft 520 kts
2026-04-30 10:19 59.26681 65.82916 39386 ft 521 kts
2026-04-30 10:19 59.30264 65.83719 39637 ft 522 kts
2026-04-30 10:19 59.33901 65.84535 39885 ft 523 kts
2026-04-30 10:20 59.37497 65.85343 40121 ft 524 kts
2026-04-30 10:20 59.44690 65.86968 40552 ft 526 kts
2026-04-30 10:20 59.48335 65.87794 40788 ft 526 kts
2026-04-30 10:21 59.51961 65.88618 40980 ft 527 kts
2026-04-30 10:21 59.55580 65.89441 41191 ft 526 kts
2026-04-30 10:21 59.59198 65.90265 41385 ft 526 kts
2026-04-30 10:21 59.62810 65.91091 41583 ft 525 kts
2026-04-30 10:22 59.70079 65.93497 40964 ft 552 kts 18°
2026-04-30 10:22 59.73500 65.96914 40564 ft 547 kts 34°
2026-04-30 10:22 59.76300 66.01856 40358 ft 545 kts 49°
2026-04-30 10:23 59.78637 66.07809 39910 ft 548 kts 52°
2026-04-30 10:23 59.80934 66.13743 39526 ft 549 kts 49°
2026-04-30 10:23 59.83360 66.19553 39323 ft 546 kts 47°
2026-04-30 10:23 59.85821 66.25291 38828 ft 553 kts 47°
2026-04-30 10:24 59.88324 66.31091 38226 ft 558 kts 46°
2026-04-30 10:24 59.90855 66.36944 37996 ft 557 kts 46°
2026-04-30 10:24 59.93350 66.42721 37623 ft 559 kts 46°
2026-04-30 10:24 59.95882 66.48595 37226 ft 555 kts 46°
2026-04-30 10:25 59.98360 66.54361 36957 ft 551 kts 45°
2026-04-30 10:25 60.00854 66.60164 36854 ft 551 kts 45°
2026-04-30 10:25 60.03325 66.65933 36618 ft 553 kts 46°
2026-04-30 10:25 60.05813 66.71777 36376 ft 551 kts 46°
2026-04-30 10:26 60.08286 66.77602 36540 ft 549 kts 46°
2026-04-30 10:26 60.10748 66.83403 36430 ft 552 kts 46°
2026-04-30 10:26 60.15700 66.95040 36367 ft 548 kts 46°
2026-04-30 10:27 60.20611 67.06682 36388 ft 550 kts 46°
2026-04-30 10:27 60.25519 67.18397 36404 ft 548 kts 46°
2026-04-30 10:28 60.30424 67.30162 36403 ft 550 kts 46°
2026-04-30 10:28 60.35297 67.41917 36417 ft 546 kts 46°
2026-04-30 10:29 60.40142 67.53666 36401 ft 547 kts 46°
2026-04-30 10:29 60.44964 67.65416 36410 ft 546 kts 47°
2026-04-30 10:30 60.49772 67.77216 36402 ft 547 kts 47°
2026-04-30 10:30 60.54616 67.89159 36401 ft 547 kts 47°
2026-04-30 10:31 60.59429 68.01072 36411 ft 545 kts 47°
2026-04-30 10:31 60.64206 68.12958 36420 ft 545 kts 47°
2026-04-30 10:32 60.68977 68.24890 36403 ft 544 kts 47°
2026-04-30 10:32 60.73728 68.36825 36440 ft 543 kts 47°
2026-04-30 10:33 60.78459 68.48779 36427 ft 541 kts 47°
2026-04-30 10:33 60.83190 68.60794 36415 ft 542 kts 47°
2026-04-30 10:34 60.87887 68.72800 36363 ft 543 kts 48°
2026-04-30 10:34 60.92576 68.84865 36423 ft 543 kts 48°
2026-04-30 10:35 60.97269 68.96974 36415 ft 543 kts 48°
2026-04-30 10:35 61.01938 69.09085 36436 ft 541 kts 48°
2026-04-30 10:36 61.07154 69.19963 36499 ft 533 kts 36°
2026-04-30 10:36 61.12714 69.29963 36395 ft 535 kts 37°
2026-04-30 10:37 61.18269 69.40196 36388 ft 535 kts 37°
2026-04-30 10:37 61.23479 69.49881 36413 ft 534 kts 37°
2026-04-30 10:38 61.29010 69.60221 36404 ft 535 kts 37°
2026-04-30 10:38 61.34502 69.70562 36383 ft 535 kts 38°
2026-04-30 10:39 61.39938 69.80861 36401 ft 535 kts 38°
2026-04-30 10:39 61.45390 69.91216 36391 ft 534 kts 38°
2026-04-30 10:40 61.50883 70.01694 36396 ft 534 kts 38°
2026-04-30 10:40 61.56330 70.12139 36393 ft 532 kts 38°
2026-04-30 10:41 61.61753 70.22590 36407 ft 533 kts 38°
2026-04-30 10:41 61.67190 70.33118 36408 ft 533 kts 38°
2026-04-30 10:42 61.72610 70.43672 36402 ft 532 kts 38°
2026-04-30 10:42 61.78003 70.54213 36404 ft 531 kts 38°
2026-04-30 10:43 61.83373 70.64769 36385 ft 530 kts 38°
2026-04-30 10:43 61.88766 70.75459 36407 ft 531 kts 39°
2026-04-30 10:44 61.94160 70.86188 36397 ft 530 kts 39°
2026-04-30 10:44 61.99554 70.96684 36378 ft 527 kts 31°
2026-04-30 10:45 62.02647 71.00649 36457 ft 516 kts 22°
2026-04-30 10:45 62.05815 71.04122 36431 ft 522 kts 22°
2026-04-30 10:45 62.12196 71.11354 36366 ft 520 kts 23°
2026-04-30 10:46 62.18422 71.18466 36364 ft 520 kts 23°
2026-04-30 10:46 62.24734 71.25736 36397 ft 519 kts 23°
2026-04-30 10:47 62.31064 71.33067 36415 ft 519 kts 23°
2026-04-30 10:47 62.37383 71.40421 36414 ft 519 kts 23°
2026-04-30 10:48 62.43705 71.47813 36420 ft 519 kts 23°
2026-04-30 10:48 62.50009 71.55223 36414 ft 518 kts 23°
2026-04-30 10:49 62.56336 71.62695 36408 ft 518 kts 23°
2026-04-30 10:49 62.62530 71.70064 36399 ft 519 kts 24°
2026-04-30 10:50 62.68896 71.77679 36412 ft 518 kts 24°
2026-04-30 10:50 62.75172 71.85204 36403 ft 517 kts 24°
2026-04-30 10:51 62.81473 71.92793 36402 ft 516 kts 24°
2026-04-30 10:51 62.87699 72.00326 36404 ft 516 kts 25°
2026-04-30 10:52 62.93943 72.07920 36407 ft 516 kts 24°
2026-04-30 10:52 63.00184 72.15546 36399 ft 515 kts 24°
2026-04-30 10:53 63.06405 72.23186 36405 ft 514 kts 25°
2026-04-30 10:53 63.12657 72.30894 36346 ft 516 kts 24°
2026-04-30 10:54 63.18891 72.38593 36369 ft 516 kts 25°
2026-04-30 10:54 63.24846 72.46011 36374 ft 516 kts 25°
2026-04-30 10:55 63.30990 72.53706 36377 ft 515 kts 25°
2026-04-30 10:55 63.37190 72.61510 36381 ft 515 kts 25°
2026-04-30 10:56 63.43395 72.69372 36370 ft 515 kts 26°
2026-04-30 10:56 63.49487 72.77145 36359 ft 516 kts 26°
2026-04-30 10:57 63.55706 72.85097 36369 ft 514 kts 26°
2026-04-30 10:57 63.61867 72.93009 36369 ft 515 kts 26°
2026-04-30 10:58 63.68057 73.01000 36367 ft 514 kts 26°
2026-04-30 10:58 63.74226 73.09003 36363 ft 514 kts 26°
2026-04-30 10:59 63.80392 73.17045 36359 ft 513 kts 26°
2026-04-30 10:59 63.86513 73.25066 36360 ft 513 kts 26°
2026-04-30 11:00 63.92683 73.33193 36354 ft 512 kts 26°
2026-04-30 11:00 63.98785 73.41273 36355 ft 511 kts 26°
2026-04-30 11:01 64.04899 73.49410 36349 ft 510 kts 26°
2026-04-30 11:01 64.11012 73.57587 36341 ft 512 kts 26°
2026-04-30 11:02 64.17140 73.65785 36313 ft 512 kts 27°
2026-04-30 11:02 64.22955 73.73664 36325 ft 514 kts 27°
2026-04-30 11:03 64.29064 73.81973 36351 ft 514 kts 27°
2026-04-30 11:04 64.38252 73.94537 36355 ft 513 kts 27°
2026-04-30 11:04 64.43902 74.02310 36351 ft 513 kts 28°
2026-04-30 11:05 64.50012 74.10759 36361 ft 513 kts 28°
2026-04-30 11:05 64.56132 74.19267 36354 ft 513 kts 28°
2026-04-30 11:06 64.62211 74.27762 36355 ft 513 kts 28°
2026-04-30 11:06 64.68281 74.36291 36354 ft 512 kts 28°
2026-04-30 11:07 64.74348 74.44859 36357 ft 511 kts 28°
2026-04-30 11:07 64.80392 74.53440 36360 ft 511 kts 28°
2026-04-30 11:08 64.86454 74.62094 36359 ft 511 kts 28°
2026-04-30 11:08 64.92474 74.70752 36340 ft 512 kts 29°
2026-04-30 11:09 64.98309 74.79192 36345 ft 511 kts 29°
2026-04-30 11:09 65.04261 74.87829 36351 ft 511 kts 29°
2026-04-30 11:10 65.10277 74.96600 36346 ft 511 kts 29°
2026-04-30 11:10 65.16318 75.05412 36300 ft 511 kts 29°
2026-04-30 11:11 65.22079 75.13885 36328 ft 512 kts 29°
2026-04-30 11:11 65.28103 75.22807 36339 ft 511 kts 29°
2026-04-30 11:12 65.34119 75.31767 36341 ft 512 kts 29°
2026-04-30 11:12 65.40116 75.40749 36341 ft 511 kts 29°
2026-04-30 11:13 65.46110 75.49775 36343 ft 511 kts 29°
2026-04-30 11:13 65.52108 75.58858 36346 ft 511 kts 29°
2026-04-30 11:14 65.58089 75.67969 36012 ft 511 kts 30°
2026-04-30 11:14 65.61057 75.72528 35736 ft 507 kts 30°
2026-04-30 11:14 65.64005 75.77060 35465 ft 504 kts 30°
2026-04-30 11:14 65.66956 75.81601 35200 ft 502 kts 30°
2026-04-30 11:15 65.69887 75.86122 34949 ft 500 kts 31°
2026-04-30 11:15 65.72742 75.90809 34711 ft 499 kts 34°
2026-04-30 11:15 65.75540 75.95759 34480 ft 497 kts 34°
2026-04-30 11:15 65.78320 76.00696 34267 ft 495 kts 34°
2026-04-30 11:16 65.81097 76.05598 34060 ft 494 kts 34°
2026-04-30 11:16 65.83858 76.10475 33755 ft 493 kts 34°
2026-04-30 11:16 65.86613 76.15353 33412 ft 490 kts 34°
2026-04-30 11:16 65.89350 76.20214 33016 ft 490 kts 34°
2026-04-30 11:17 65.92094 76.25096 32595 ft 492 kts 34°
2026-04-30 11:17 65.94852 76.30016 32142 ft 495 kts 34°
2026-04-30 11:17 65.97608 76.34943 31693 ft 497 kts 34°
2026-04-30 11:17 66.00415 76.39976 31269 ft 497 kts 34°
2026-04-30 11:18 66.03174 76.44938 30872 ft 496 kts 34°
2026-04-30 11:18 66.08651 76.54834 29837 ft 481 kts 35°
2026-04-30 11:18 66.11340 76.59692 29106 ft 473 kts 35°
2026-04-30 11:19 66.13950 76.64379 28303 ft 467 kts 35°
2026-04-30 11:19 66.16531 76.69051 27489 ft 460 kts 37°
2026-04-30 11:19 66.18839 76.73274 26875 ft 450 kts 37°
2026-04-30 11:19 66.21288 76.77769 26232 ft 438 kts 37°
2026-04-30 11:20 66.23494 76.81815 25578 ft 429 kts 37°
2026-04-30 11:20 66.25836 76.86128 24806 ft 420 kts 37°
2026-04-30 11:20 66.28109 76.90318 23938 ft 411 kts 37°
2026-04-30 11:20 66.30396 76.94554 23033 ft 403 kts 37°
2026-04-30 11:21 66.32597 76.98618 22223 ft 394 kts 37°
2026-04-30 11:21 66.34763 77.02663 21445 ft 385 kts 37°
2026-04-30 11:21 66.36461 77.05832 20805 ft 378 kts 36°
2026-04-30 11:21 66.38100 77.08884 20163 ft 373 kts 36°
2026-04-30 11:22 66.40132 77.12676 19401 ft 365 kts 36°
2026-04-30 11:22 66.42145 77.16441 18730 ft 355 kts 36°
2026-04-30 11:22 66.44070 77.20049 18041 ft 347 kts 36°
2026-04-30 11:22 66.45970 77.23617 17335 ft 340 kts 36°
2026-04-30 11:23 66.47840 77.27135 16626 ft 335 kts 36°
2026-04-30 11:23 66.49680 77.30605 15917 ft 329 kts 36°
2026-04-30 11:23 66.53434 77.36549 14551 ft 315 kts 10°
2026-04-30 11:24 66.55546 77.36790 13934 ft 303 kts 343°
2026-04-30 11:24 66.57410 77.34747 13272 ft 291 kts 316°
2026-04-30 11:24 66.58639 77.30951 12621 ft 278 kts 288°
2026-04-30 11:25 66.58419 77.22057 11328 ft 261 kts 232°
2026-04-30 11:25 66.57090 77.19125 10696 ft 257 kts 206°
2026-04-30 11:25 66.53935 77.15331 9545 ft 252 kts 204°
2026-04-30 11:26 66.50713 77.11852 8735 ft 254 kts 204°
2026-04-30 11:26 66.49109 77.10043 8405 ft 255 kts 205°
2026-04-30 11:26 66.47504 77.08125 8065 ft 255 kts 206°
2026-04-30 11:27 66.45912 77.06106 7534 ft 263 kts 208°
2026-04-30 11:27 66.44304 77.03937 7061 ft 267 kts 210°
2026-04-30 11:27 66.42684 77.01622 6631 ft 269 kts 211°
2026-04-30 11:27 66.41099 76.99223 6230 ft 270 kts 212°
2026-04-30 11:28 66.37965 76.94088 5451 ft 271 kts 215°
2026-04-30 11:28 66.36423 76.91441 5073 ft 271 kts 215°
2026-04-30 11:28 66.34874 76.88820 4561 ft 266 kts 214°
2026-04-30 11:29 66.33337 76.86340 3875 ft 263 kts 213°
2026-04-30 11:29 66.31818 76.84032 3394 ft 253 kts 211°
2026-04-30 11:29 66.28860 76.79967 2465 ft 238 kts 208°
2026-04-30 11:30 66.26023 76.76543 1908 ft 212 kts 205°
2026-04-30 11:30 66.25227 76.75665 1783 ft 205 kts 205°
2026-04-30 11:30 66.24496 76.74863 1555 ft 207 kts 204°
2026-04-30 11:31 66.23202 76.73398 1593 ft 203 kts 203°
2026-04-30 11:31 66.21912 76.72030 1745 ft 206 kts 202°
2026-04-30 11:31 66.20585 76.70766 1767 ft 201 kts 199°
2026-04-30 11:31 66.19292 76.69762 1682 ft 186 kts 196°
2026-04-30 11:32 66.18233 76.68958 1470 ft 171 kts 196°
2026-04-30 11:33 66.17468 76.68426 1223 ft 169 kts 201°
2026-04-30 11:33 66.16280 76.67353 1089 ft 189 kts 198°
2026-04-30 11:33 66.15013 76.66634 1253 ft 187 kts 188°
2026-04-30 11:34 66.13689 76.66737 1276 ft 194 kts 169°
2026-04-30 11:34 66.12463 76.67819 1342 ft 185 kts 153°
2026-04-30 11:34 66.11350 76.69289 1292 ft 174 kts 152°
2026-04-30 11:34 66.10335 76.70746 1315 ft 167 kts 149°
2026-04-30 11:35 66.09347 76.72331 1284 ft 171 kts 146°
2026-04-30 11:35 66.08392 76.74044 1265 ft 170 kts 144°
2026-04-30 11:35 66.07464 76.75805 1321 ft 171 kts 142°
2026-04-30 11:35 66.06499 76.77518 1355 ft 169 kts 155°
2026-04-30 11:36 66.05379 76.77857 1421 ft 166 kts 193°
2026-04-30 11:36 66.04528 76.76130 1545 ft 165 kts 248°
2026-04-30 11:36 66.04539 76.73260 1560 ft 179 kts 280°
2026-04-30 11:36 66.04772 76.70179 1484 ft 182 kts 279°
2026-04-30 11:37 66.05019 76.67293 1220 ft 164 kts 282°
2026-04-30 11:37 66.05318 76.64789 965 ft 147 kts 287°
2026-04-30 11:37 66.05653 76.62380 746 ft 146 kts 287°
2026-04-30 11:37 66.05967 76.59964 574 ft 152 kts 285°
2026-04-30 11:38 66.06274 76.57506 418 ft 148 kts 287°
2026-04-30 11:38 66.06594 76.55061 239 ft 149 kts 287°
2026-04-30 11:38 66.06895 76.52739 199 ft 128 kts 287°
2026-04-30 11:38 66.07117 76.51002 206 ft 77 kts 287°
2026-04-30 11:39 66.07220 76.50193 209 ft 33 kts 287°
2026-04-30 11:39 66.07270 76.49787 209 ft 17 kts 287°
2026-04-30 11:39 66.07294 76.49656 209 ft 3 kts
2026-04-30 11:39 66.07293 76.49783 209 ft 16 kts 113°
2026-04-30 11:40 66.07249 76.50057 209 ft 18 kts 110°
2026-04-30 11:40 66.07212 76.50330 209 ft 12 kts 108°
2026-04-30 11:40 66.07185 76.50541 208 ft 13 kts 108°
2026-04-30 11:40 66.07153 76.50784 207 ft 16 kts 108°
2026-04-30 11:41 66.07117 76.51060 206 ft 18 kts 108°
2026-04-30 11:41 66.07077 76.51366 204 ft 17 kts 108°
2026-04-30 11:41 66.07040 76.51646 203 ft 16 kts 109°
2026-04-30 11:41 66.07012 76.51874 201 ft 12 kts 102°
2026-04-30 11:42 66.07045 76.52073 200 ft 13 kts 27°
2026-04-30 11:42 66.07111 76.52135 199 ft 8 kts 24°
2026-04-30 11:42 66.07132 76.52262 199 ft 9 kts 98°
2026-04-30 11:42 66.07116 76.52418 198 ft 6 kts 107°
2026-04-30 11:43 66.07102 76.52536 198 ft 7 kts 91°
2026-04-30 11:43 66.07126 76.52618 197 ft 4 kts 24°
2026-04-30 11:43 66.07153 76.52642 197 ft 2 kts 19°
2026-04-30 11:43 66.07157 76.52647 197 ft 0 kts 19°